Regional Weather Roundup
Issued by NWS

Home | Current Version | Previous Version | Text Only | Print | Product List | Glossary Off
Versions: 1 2 3 4 5 6 7 8 9 10 11 12 13 14 15 16 17 18 19 20 21 22 23 24 25 26 27 28 29 30 31 32 33 34 35 36 37 38 39 40 41 42 43 44 45 46 47 48 49 50

000
ASUS43 KDMX 311620
RWRIA

WEATHER ROUNDUP FOR IOWA
NATIONAL WEATHER SERVICE DES MOINES IA
1100 AM CDT MON AUG 31 2015

NOTE: "FAIR" INDICATES FEW OR NO CLOUDS BELOW 12,000 FEET WITH NO
SIGNIFICANT WEATHER AND/OR OBSTRUCTIONS TO VISIBILITY.

* - THESE STATIONS ARE NOT NWS STATIONS...THUS NOT UNDER NWS
QUALITY CONTROL.  THEY ALSO DO NOT REPORT WEATHER SUCH
AS PRECIPITATION OR FOG.

IAZ001>003-012>014-020>022-031>034-043>046-311700-
   NORTHWEST IOWA

CITY           SKY/WX    TMP DP  RH WIND       PRES   REMARKS
CARROLL *      SUNNY     77  73  88 S7        29.98S
CHEROKEE *     MOSUNNY   75  72  88 S12       29.96S FOG
DENISON *      MOSUNNY   77  70  78 S12       29.97R
LE MARS *      MOSUNNY   75  70  83 S15       29.95S
ORANGE CITY *  MOSUNNY   73  70  88 S13       29.95S
SHELDON *      PTSUNNY   73  70  88 S14G20    29.94S
SIOUX CITY     SUNNY     75  69  81 SE9       29.94S
SPENCER        PTSUNNY   76  69  79 S10       29.97R HAZE
STORM LAKE *   MOSUNNY   75  72  88 SW10      29.99R
$$

IAZ055>058-069>071-079>083-090>094-311700-
   SOUTHWEST IOWA

CITY           SKY/WX    TMP DP  RH WIND       PRES   REMARKS
ATLANTIC *     MOSUNNY   79  72  78 S9        29.99R HX  82
AUDUBON *      SUNNY     79  73  83 S6        30.00S HX  82
CLARINDA *     PTSUNNY   75  73  94 S6        30.01S FOG
COUNCIL BLFS * MOSUNNY   77  72  83 S9        29.99R
CRESTON *      MOSUNNY   77  73  88 S10       30.02S
LAMONI         SUNNY     80  73  79 S7        30.01S HX  84
RED OAK *      MOSUNNY   79  73  83 S9        29.99S HX  82
SHENANDOAH *   PTSUNNY   79  73  83 S8        30.00R HX  82
$$

IAZ047>049-059>061-072>074-084-311700-
   CENTRAL IOWA

CITY           SKY/WX    TMP DP  RH WIND       PRES   REMARKS
AMES           SUNNY     78  73  84 S6        30.00S HX  81
ANKENY *       SUNNY     79  73  83 SE6       30.00S HX  82
CHARITON *     SUNNY     82  73  74 S8        30.01S HX  88
DES MOINES     MOSUNNY   80  71  74 S8        30.00R HX  84
GRINNELL*      SUNNY     79  72  78 S8        30.03S HX  82
KNOXVILLE *    SUNNY     81  73  78 S7        30.00S HX  85
MARSHALLTOWN   SUNNY     78  72  81 S9        30.01R HX  80
PELLA *        SUNNY     82  75  78 S6        30.03R HX  89
PERRY *          N/A     79  74  83 SE5       29.99S HX  82
$$

IAZ004>006-015-016-023>025-035-036-311700-
   NORTH CENTRAL IOWA

CITY           SKY/WX    TMP DP  RH WIND       PRES   REMARKS
ALGONA *       SUNNY     77  72  83 S14       29.98S
CLARION *      SUNNY     77  72  83 S13       29.99F
ESTHERVILLE    CLOUDY    72  69  90 S12       29.96S FOG
FORT DODGE *   SUNNY     79  72  78 S8        30.00R HX  82
MASON CITY     SUNNY     75  70  84 S10       30.01S
FOREST CITY *  MOSUNNY   75  72  88 S14       29.99S
IOWA FALLS *     N/A     78  72  82 S9        30.03R HX  80
$$

IAZ007>011-017>019-026>030-037>042-050>054-066-311700-
   NORTHEAST IOWA

CITY           SKY/WX    TMP DP  RH WIND       PRES   REMARKS
CEDAR RAPIDS   SUNNY     77  73  87 S9        30.03S
CHARLES CITY * SUNNY     75  73  94 S10       30.02F
CLINTON *      SUNNY     77  72  83 S7        30.08S
DECORAH *      SUNNY     75  70  83 VRB7      30.03S
DUBUQUE        SUNNY     75  70  84 S8        30.06F
MONTICELLO *   SUNNY     77  72  83 SE7       30.04F
OELWEIN *      SUNNY     75  72  88 S9        30.05R
WATERLOO       SUNNY     76  70  82 S9        30.01S
$$

IAZ064-065-067-068-078-311700-
   EAST CENTRAL IOWA

CITY           SKY/WX    TMP DP  RH WIND       PRES   REMARKS
DAVENPORT      SUNNY     79  70  74 SE6       30.06S HX  82
IOWA CITY      SUNNY     79  71  76 SE8       30.04S HX  82
MT. PLEASANT * SUNNY     84  70  61 S6        30.04S HX  88
MUSCATINE *    SUNNY     81  70  69 SE8       30.04S HX  84
QUAD CITIES    SUNNY     81  71  71 SE3       30.05R HX  85
$$

IAZ062-063-075>077-085>089-095>099-311700-
   SOUTHEAST IOWA

CITY           SKY/WX    TMP DP  RH WIND       PRES   REMARKS
BURLINGTON     SUNNY     80  73  79 S8        30.05R HX  84
FAIRFIELD *    SUNNY     82  72  69 S9        30.03S HX  87
FORT MADISON * SUNNY     82  75  78 S6        30.05S HX  89
KEOKUK *       SUNNY     84  73  70 VRB5      30.03F HX  91
OSKALOOSA *      N/A     82  72  69 S3        30.02S HX  87
CENTERVILLE *  SUNNY     81  73  78 SE7       30.04S HX  85
OTTUMWA        SUNNY     81  74  79 S8        30.00F HX  86
WASHINGTON *     N/A    N/A N/A N/A MISG        N/A
$$

ABBREVIATIONS USED IN REMARKS
   TC - TEMPERATURES IN CELSIUS
  WCI - WIND CHILL INDEX
   HX - HEAT INDEX
  VSB - VISIBILITY
$$




USA.gov is the U.S. government's official web portal to all federal, state and local government web resources and services.